Regional Weather Roundup
Issued by NWS

Current Version | Previous Version | Text Only | Print | Product List | Glossary On
Versions: 1 2 3 4 5 6 7 8 9 10 11 12 13 14 15 16 17 18 19 20 21 22 23 24 25 26 27 28 29 30 31 32 33 34 35 36 37 38 39 40 41 42 43 44 45 46 47 48 49 50
000
ASUS44 KMEG 040610
RWRTN
TENNESSEE HOURLY STATE WEATHER ROUNDUP
NATIONAL WEATHER SERVICE MEMPHIS TN
100 AM CDT TUE OCT 04 2022

TNZ002-004-019-021-049-052-054-088>092-040700-
WEST TENNESSEE

CITY           SKY/WX    TMP DP  RH WIND       PRES   REMARKS
MEMPHIS INTL   CLEAR     63  50  62 NE7       30.15F
NWS MEMPHIS      N/A     62 N/A N/A MISG        N/A
JACKSON        CLEAR     50  48  93 CALM      30.17F
DYERSBURG      CLEAR     56  49  77 NE3       30.19S
COVINGTON      CLEAR     52  48  87 CALM      30.16F
UNION CITY     CLEAR     54  50  87 NE5       30.17F
BOLIVAR        CLEAR     50  48  93 CALM      30.15S
PARIS          CLEAR     52  48  87 N3        30.18S
HUNTINGDON     PTCLDY    52  48  87 CALM      30.16F
LEXINGTON      CLEAR     52  48  87 N5        30.16S
SELMER         CLEAR     54  50  87 CALM      30.15S
SAVANNAH       CLEAR     52  50  93 CALM      30.14F
$$

TNZ008-025-027-028-033-062-065-066-040700-
NORTH MIDDLE TENNESSEE

CITY           SKY/WX    TMP DP  RH WIND       PRES   REMARKS
NASHVILLE      CLEAR     57  44  62 NE5       30.19S
DICKSON        PTCLDY    54  45  71 CALM      30.16F
PORTLAND       CLEAR     48  46  93 CALM      30.18F
CLARKSVILLE    CLEAR     55  44  66 CALM      30.18S
LEBANON        PTCLDY    46  46 100 CALM      30.16S
SMYRNA         CLEAR     51  47  86 CALM      30.18F
MURFREESBORO   CLEAR     52  46  82 CALM      30.15S
COOKEVILLE     CLEAR     41  41 100 CALM      30.16F
LIVINGSTON     CLEAR     50  46  87 NE7       30.18S
GALLATIN       CLEAR     54  46  76 N6        30.20F
CROSSVILLE     CLEAR     47  47 100 CALM      30.18F
ROCKWOOD       CLEAR     48  46  93 CALM      30.17F
$$

TNZ061-075-076-078-094-096-097-040700-
SOUTH MIDDLE TENNESSEE

CITY           SKY/WX    TMP DP  RH WIND       PRES   REMARKS
LAWRENCEBURG   CLEAR     48  46  93 CALM      30.15S
LEWISBURG      CLEAR     43  43 100 CALM      30.15F
FAYETTEVILLE   CLEAR     52  50  93 N8        30.15F
TULLAHOMA      CLEAR     46  46 100 CALM      30.15S
WINCHESTER     CLEAR     46  46 100 CALM      30.14F
MCMINNVILLE    CLEAR     45  45 100 CALM      30.16S
COLUMBIA       CLEAR     48  50 100 CALM      30.14F
SHELBYVILLE    CLEAR     46  45  93 CALM      30.15F
$$

TNZ017-018-042-046-047-040700-
NORTHEAST TENNESSEE

CITY           SKY/WX    TMP DP  RH WIND       PRES   REMARKS
TRI CITIES     PTCLDY    45  42  89 CALM      30.19S
ELIZABETHTON   CLOUDY    45  45 100 CALM      30.18F
GREENEVILLE    CLEAR     48  45  87 CALM      30.16F
$$

TNZ012-013-036-069-073-074-040700-
CENTRAL EAST TENNESSEE

CITY           SKY/WX    TMP DP  RH WIND       PRES   REMARKS
KNOXVILLE      CLEAR     52  48  86 NE5       30.16F
OAK RIDGE      CLEAR     53  49  86 CALM      30.18F
DOWNTOWN KNOXV CLEAR     52  48  87 CALM      30.17F
GATLINBURG     CLEAR     48  48 100 CALM      30.17F
MORRISTOWN     CLEAR     48  46  93 NE3       30.16F
JACKSBORO      FOG       45  45 100 CALM      30.23F VSB 1/2
ONEIDA         CLEAR     46  45  93 N3        30.18F
$$

TNZ083-085-099-040700-
SOUTHEAST TENNESSEE

CITY           SKY/WX    TMP DP  RH WIND       PRES   REMARKS
CHATTANOOGA    CLEAR     58  51  78 N6        30.14F
DAYTON         CLEAR     50  50 100 CALM      30.15S
$$

SKY/WX REPORTED AS FAIR MEANS FEW OR NO CLOUDS BELOW
12 THOUSAND FEET.




USA.gov is the U.S. government's official web portal to all federal, state and local government web resources and services.